Location: Newark
(45.4422°N, 16.2769°E)
Time: 05:49:24
(UTC+00:00)

Courier 1B - All Passes

Search period start: 11 December 2019 00:00
Search period end: 21 December 2019 00:00
Orbit: 963 x 1209 km, 28.3° (Epoch: 10 December)

Date Brightness Start Highest point End Pass type
(mag) Time Alt. Az. Time Alt. Az. Time Alt. Az.
11 Dec - 19:10:20 10° S 19:13:35 13° SSE 19:16:53 10° SE visible
11 Dec - 21:01:14 10° SW 21:06:29 21° S 21:11:53 10° SE night (unlit)
11 Dec - 22:54:31 10° SW 22:59:34 19° S 23:04:42 10° SSE night (unlit)
12 Dec - 00:52:12 10° SSW 00:52:29 10° SSW 00:52:47 10° SSW night (unlit)
12 Dec - 18:19:05 10° SSE 18:20:06 10° SSE 18:21:07 10° SSE visible
12 Dec - 20:08:00 10° SSW 20:12:54 19° S 20:17:57 10° SE visible
12 Dec - 22:00:44 10° SW 22:05:57 20° S 22:11:17 10° SE night (unlit)
12 Dec - 23:55:50 10° SW 23:58:56 13° SSW 00:02:03 10° S night (unlit)
13 Dec - 19:14:58 10° SSW 19:19:20 17° SSE 19:23:51 10° SE visible
13 Dec - 21:07:07 10° SW 21:12:20 21° S 21:17:42 10° SE night (unlit)
13 Dec - 23:01:19 10° SW 23:05:21 15° SSW 23:09:27 10° SSE night (unlit)
14 Dec - 18:22:14 10° SSW 18:25:50 14° SSE 18:29:31 10° SE visible
14 Dec - 20:13:40 10° SW 20:18:44 20° S 20:23:59 10° SE visible
14 Dec - 22:07:14 10° SW 22:11:45 17° SSW 22:16:24 10° SSE night (unlit)
15 Dec - 17:30:07 10° S 17:32:22 12° SSE 17:34:38 10° SE visible
15 Dec - 19:20:23 10° SW 19:25:10 19° S 19:30:07 10° SE visible
15 Dec - 21:13:23 10° SW 21:18:11 18° S 21:23:06 10° SSE night (unlit)
15 Dec - 23:10:12 10° SSW 23:11:06 10° SSW 23:11:59 10° SSW night (unlit)
16 Dec - 18:27:16 10° SSW 18:31:38 18° S 18:36:09 10° SE visible
16 Dec - 20:19:45 10° SW 20:24:36 19° S 20:29:36 10° SE visible
16 Dec - 22:14:36 10° SW 22:17:33 13° SSW 22:20:33 10° S night (unlit)
17 Dec - 17:34:24 10° SSW 17:38:08 15° SSE 17:42:00 10° SE visible
17 Dec - 19:26:16 10° SW 19:31:02 19° S 19:35:59 10° SE visible
17 Dec - 21:20:15 10° SW 21:23:59 15° SSW 21:27:50 10° SSE night (unlit)
18 Dec - 16:41:54 10° S 16:44:41 13° SSE 16:47:32 10° SE visible
18 Dec - 18:32:55 10° SW 18:37:30 19° S 18:42:14 10° SE visible
18 Dec - 20:26:17 10° SW 20:30:27 16° SSW 20:34:44 10° SSE visible
19 Dec - 15:51:01 10° SSE 15:51:16 10° SSE 15:51:31 10° SSE visible
19 Dec - 17:39:44 10° SSW 17:43:59 18° S 17:48:24 10° SE visible
19 Dec - 19:32:34 10° SW 19:36:54 17° S 19:41:25 10° SSE visible
20 Dec - 16:46:42 10° SSW 16:50:31 16° S 16:54:26 10° SE visible
20 Dec - 18:39:00 10° SW 18:43:23 18° S 18:47:56 10° SE visible
20 Dec - 20:33:46 10° SW 20:36:17 12° SSW 20:38:50 10° S visible
